Vorticity
6 7 7 8 8 8 7 7 7 8 9 9 10 9 8 7 6 4 3 1 1 1 1 1 2 3 3 4 4 5 6 6 7 8 8 10 11 12 13 13 13 12 12 12 11 11 10 10 9 9 8 9 10 11 12 13 13 12 11 9 8 6 5 4 3 3 3 3 3
3 4 5 6 7 7 8 8 8 8 9 9 10 10 11 11 11 10 10 8 7 7 6 6 6 6 6 7 7 8 8 9 9 10 11 12 14 15 16 16 16 17 17 17 17 16 15 14 13 12 12 12 12 13 13 12 10 9 8 7 6 5 4 4 4 4 4 4 4
1 1 2 2 3 4 5 6 7 8 8 9 9 10 10 11 12 12 12 12 12 11 11 10 10 10 10 10 10 10 10 9 9 9 10 10 12 13 13 14 14 15 16 18 19 19 18 17 16 15 14 13 13 12 11 9 7 6 5 5 5 4 4 4 4 5 5 5 5
0 0 0 0 1 1 2 3 4 4 5 6 7 8 9 9 10 11 11 12 12 12 12 11 11 11 11 10 10 10 10 9 8 7 6 6 7 8 8 8 9 10 11 13 15 16 17 17 16 15 14 13 12 10 8 7 5 4 4 4 4 4 4 4 5 5 6 6 5
4 3 2 2 2 1 1 1 1 2 2 2 3 4 5 6 7 8 9 9 10 11 11 11 11 11 10 10 10 10 10 9 8 7 6 5 5 6 6 6 6 7 7 8 10 11 12 13 13 12 12 11 10 8 7 6 5 4 3 3 3 3 4 5 5 5 5 5 5
7 6 6 5 4 4 4 3 3 2 2 2 1 1 2 2 3 4 5 6 7 8 9 10 10 10 10 10 10 10 10 10 9 8 8 7 7 7 7 7 7 7 7 7 7 8 8 9 9 9 9 8 8 6 5 4 4 4 4 3 3 3 4 4 4 3 3 3 4
8 8 7 7 7 6 6 5 5 5 4 4 4 3 2 2 1 1 1 2 3 4 5 6 7 8 8 9 9 9 9 9 9 9 8 8 8 8 8 8 8 8 8 8 7 7 6 6 6 6 6 6 6 5 4 4 4 3 3 4 3 3 2 2 2 2 2 3 4
10 10 10 9 9 8 8 7 7 7 6 6 6 5 4 4 3 2 1 0 1 2 3 4 5 6 7 8 8 9 9 9 9 9 9 8 8 8 8 8 8 8 8 8 7 7 6 6 5 5 5 5 4 4 4 3 3 3 3 3 3 2 2 2 2 2 3 4 8
12 12 12 12 12 11 11 10 10 9 9 8 8 7 6 6 5 4 3 2 0 0 -0 0 1 2 3 5 6 8 9 10 11 11 11 11 10 9 9 8 8 7 7 7 6 6 6 5 5 5 4 4 4 4 4 3 3 3 3 3 3 3 3 3 4 5 7 12 17
12 13 13 13 13 13 13 13 12 12 12 11 11 10 10 9 8 7 6 5 4 3 2 1 -0 -1 -2 -1 -0 1 3 6 8 10 13 14 14 14 13 12 10 9 8 7 6 5 5 5 5 4 4 4 4 4 4 3 3 3 3 3 3 4 4 5 7 11 16 20 22
12 12 13 13 13 14 14 14 14 14 14 14 14 14 14 13 13 11 10 9 8 7 7 6 4 3 2 0 -1 -2 -2 -1 1 4 7 11 14 16 17 17 16 14 12 10 7 6 5 5 4 4 4 4 4 4 3 3 3 3 3 3 3 4 6 8 13 18 21 21 18
10 11 11 12 13 13 14 14 15 15 16 16 16 16 17 16 16 15 14 13 13 12 11 10 8 8 7 6 4 3 2 0 0 1 2 4 7 10 14 18 20 20 19 16 13 11 8 7 6 5 5 4 4 4 4 3 3 3 3 3 5 7 10 14 19 19 18 13 10
9 10 10 10 11 11 12 12 13 13 14 14 15 16 16 16 17 17 16 16 15 14 13 13 12 11 10 10 9 8 7 6 5 4 4 3 3 4 5 9 14 18 22 22 20 18 15 13 11 9 7 6 6 5 5 4 4 4 4 6 9 13 16 19 17 14 10 7 5
8 8 9 9 9 9 9 9 10 10 10 11 12 13 13 14 15 16 16 16 16 16 16 15 15 14 13 12 12 12 11 10 9 8 7 6 5 4 3 2 5 9 13 18 21 21 20 18 16 13 11 9 8 8 7 7 7 9 10 13 15 16 17 15 11 8 6 4 4
8 8 7 7 7 7 7 7 7 8 8 8 9 10 11 12 13 14 15 15 16 17 17 17 17 17 16 15 15 14 13 13 12 11 10 9 8 7 6 4 3 3 4 8 12 15 17 17 17 16 14 13 12 12 13 15 16 18 18 18 17 15 12 10 8 7 6 6 6
7 7 7 7 7 6 6 6 6 6 7 7 8 9 10 11 12 13 14 15 16 17 17 18 18 18 17 17 17 16 16 16 15 14 13 12 11 10 9 7 6 4 3 3 5 7 10 12 14 15 16 17 18 20 22 24 24 23 21 18 15 13 11 10 10 9 8 8 12
6 6 6 6 6 6 6 6 6 7 7 8 9 10 10 11 12 13 14 14 15 16 17 17 18 17 18 18 18 18 18 17 17 17 16 15 13 12 11 10 9 7 6 4 4 4 6 10 14 18 20 22 23 23 23 23 21 19 17 15 14 13 13 12 10 10 10 13 16
6 6 6 6 6 6 6 6 6 7 8 8 10 10 11 12 12 13 13 14 15 16 16 17 17 17 17 17 18 18 18 18 18 17 17 16 15 14 13 12 11 10 8 6 5 5 6 10 16 21 24 24 21 18 16 15 14 14 14 14 14 13 12 10 10 12 14 18 18
6 6 6 6 6 6 6 6 7 7 8 9 10 11 12 13 13 13 14 15 16 16 16 16 17 17 17 17 17 17 17 17 17 17 16 16 15 14 14 13 13 12 11 9 7 7 8 12 18 21 22 20 17 14 13 13 14 14 15 15 14 13 12 12 14 17 19 20 18
6 6 6 6 6 6 7 7 8 8 10 11 12 13 14 14 14 15 15 16 17 17 17 17 16 16 16 16 15 15 15 15 15 15 15 15 15 15 15 15 14 14 13 11 10 10 11 15 18 20 19 18 17 16 16 16 16 16 16 16 16 16 16 18 19 20 19 17 15
7 7 7 7 7 8 8 9 10 11 12 13 14 15 15 15 15 16 17 17 17 17 17 16 15 15 14 14 14 14 14 14 14 14 14 15 15 15 16 16 16 15 14 13 11 12 13 16 17 17 17 17 17 17 17 18 18 18 19 19 19 20 20 20 20 18 16 13 12
9 9 9 9 9 10 10 11 12 13 14 15 16 15 15 15 16 17 18 18 17 17 16 15 14 13 13 13 13 13 13 14 14 14 15 15 16 16 17 16 15 14 13 11 11 13 14 15 15 15 15 15 15 16 17 18 19 19 20 20 20 20 19 18 16 14 12 10 10
10 10 10 10 11 12 13 13 14 15 16 17 16 16 16 16 17 18 18 17 16 15 14 13 12 12 12 12 13 13 14 15 15 16 17 17 17 17 16 15 13 11 11 11 12 13 14 13 12 11 11 11 12 13 14 15 16 16 16 16 16 15 14 13 11 10 9 9 9
11 11 12 12 13 14 14 15 16 17 18 17 17 17 17 17 17 17 16 15 14 13 12 12 12 12 12 13 14 15 16 17 17 18 18 18 17 16 14 12 11 10 10 10 12 12 12 11 9 8 7 8 8 10 10 11 11 11 11 11 11 10 9 9 8 8 8 9 9
12 13 13 14 15 15 16 17 18 18 18 18 17 17 17 17 16 15 14 13 13 12 12 12 12 12 13 14 15 16 18 18 18 18 18 17 16 14 12 10 9 9 9 9 9 9 8 7 6 6 6 7 7 8 8 9 9 9 9 8 8 8 8 8 8 9 10 10 10
13 14 14 15 16 16 18 19 19 18 18 17 16 16 15 15 14 13 13 12 12 11 11 11 12 12 13 14 15 16 17 18 17 16 15 14 13 11 10 9 8 8 8 7 7 7 6 6 5 6 6 7 8 8 8 9 8 8 8 8 9 9 10 10 10 10 10 10 10
14 14 15 16 17 18 18 19 18 17 16 15 14 14 13 13 12 12 12 11 11 11 11 11 11 11 12 13 13 13 14 14 14 14 13 12 11 10 10 9 9 8 8 8 8 8 7 7 7 7 8 9 9 10 10 10 10 10 10 10 11 11 11 12 11 11 11 11 11
15 15 15 16 17 18 18 18 16 14 13 12 12 12 11 11 11 11 11 10 10 10 10 10 10 11 11 11 11 11 11 11 12 12 12 12 12 12 12 12 12 12 11 11 11 10 10 10 10 10 11 11 11 11 11 11 11 11 11 11 12 12 12 12 12 12 12 12 13
15 15 16 17 17 17 17 16 14 12 11 10 10 10 10 10 10 10 9 9 8 8 8 9 10 10 11 11 11 11 11 10 10 11 11 12 13 15 16 18 18 17 17 16 16 15 14 14 14 13 13 13 12 11 11 10 10 10 11 11 12 12 13 13 13 14 14 14 13
15 15 16 17 17 17 15 14 12 10 9 9 9 9 9 9 9 8 8 7 7 7 7 8 9 10 11 13 13 13 13 11 10 10 11 12 14 16 19 21 22 22 22 21 20 19 18 17 16 14 13 11 10 10 10 10 11 11 12 13 13 14 14 15 15 14 14 13 12
14 15 16 16 16 16 14 13 11 9 8 8 8 8 8 8 7 7 7 6 6 6 6 7 8 9 11 13 14 14 13 12 11 10 10 12 14 16 18 20 21 21 21 21 20 18 16 14 13 11 10 10 10 10 11 12 13 14 14 15 15 15 15 15 14 13 12 10 9
13 14 14 15 15 14 13 12 10 9 8 7 7 7 7 7 6 6 6 5 6 6 6 6 7 8 10 11 12 13 13 12 11 10 11 12 13 14 15 16 16 16 16 15 14 12 11 10 10 10 11 12 13 13 14 15 15 15 15 15 15 14 13 12 11 10 9 8 7
12 13 13 13 14 13 13 12 11 10 8 7 7 6 6 6 6 5 5 5 5 5 5 5 6 7 8 9 10 11 11 11 11 12 12 13 13 13 13 13 13 12 12 11 11 11 11 11 12 13 14 14 15 15 15 15 15 15 14 13 13 11 10 9 8 7 7 8 9
11 12 13 13 13 13 13 13 12 11 10 8 7 6 6 6 5 5 4 4 4 4 5 5 6 6 7 8 9 10 11 12 12 13 13 14 14 14 13 13 13 12 12 12 12 13 13 14 15 15 15 15 15 15 15 14 13 13 11 10 9 8 7 7 7 8 9 11 12
12 13 14 14 15 15 15 15 14 13 12 10 9 7 6 6 5 5 5 4 4 4 5 6 6 7 7 8 9 10 11 12 12 13 14 15 15 15 14 14 13 13 13 13 14 14 14 15 15 15 14 14 14 13 13 12 10 9 8 7 6 6 7 8 10 11 13 14 15
14 15 16 17 17 17 17 17 17 16 15 13 11 10 8 7 6 6 6 6 6 6 6 7 7 8 8 9 9 10 11 11 12 13 13 14 14 14 14 14 14 14 14 13 14 14 14 14 14 13 13 13 12 11 10 8 7 6 6 6 7 8 10 12 13 14 15 15 14
16 17 18 18 19 19 19 19 19 18 17 16 14 13 11 9 8 8 7 7 7 8 8 8 9 9 9 10 10 10 11 11 12 12 13 13 13 13 13 13 13 13 13 13 13 13 13 13 12 12 11 10 9 8 7 6 6 6 7 8 10 12 14 15 16 15 14 13 11
17 17 18 18 19 19 19 19 19 19 19 18 17 15 14 13 12 11 11 10 10 10 10 10 10 10 10 10 10 11 11 11 12 12 12 12 12 12 12 12 12 13 13 13 12 12 12 11 11 10 9 8 7 6 6 6 7 8 10 12 14 16 16 16 15 13 11 10 9
18 18 17 17 18 18 18 18 18 18 18 18 18 17 17 16 16 15 14 14 13 12 12 11 10 10 10 10 10 11 11 11 12 12 12 11 11 11 11 11 12 12 12 12 11 11 10 10 9 8 8 7 7 7 7 8 10 12 14 16 16 16 15 13 12 10 8 8 8
19 19 18 18 17 17 17 16 16 16 16 16 17 17 17 17 16 16 16 15 15 14 13 12 11 11 11 10 11 11 11 11 11 11 11 11 11 11 12 12 12 12 12 12 11 10 10 9 8 8 7 7 8 8 10 12 14 15 16 17 16 14 12 10 8 8 7 7 7
18 18 18 18 18 18 17 17 16 16 16 16 16 16 16 16 16 16 15 15 15 14 14 13 13 12 12 11 11 11 11 11 11 12 12 12 12 13 13 13 13 13 13 12 11 10 9 8 8 8 8 8 9 11 13 15 16 16 16 15 13 11 9 8 7 7 7 7 7
Height
5762 5763 5763 5764 5765 5765 5766 5767 5767 5768 5769 5770 5770 5771 5772 5772 5772 5773 5773 5774 5774 5774 5775 5775 5775 5775 5775 5776 5776 5777 5777 5777 5777 5777 5778 5778 5778 5778 5778 5778 5778 5778 5778 5777 5777 5777 5777 5777 5777 5777 5778 5778 5778 5778 5778 5778 5777 5777 5777 5777 5777 5777 5777 5777 5777 5776 5776 5775 5775
5759 5760 5760 5761 5762 5763 5763 5764 5765 5765 5766 5767 5767 5768 5769 5769 5770 5770 5770 5771 5771 5771 5771 5772 5772 5772 5772 5773 5773 5773 5774 5774 5774 5774 5774 5775 5774 5774 5775 5775 5775 5775 5775 5774 5774 5774 5774 5774 5774 5774 5775 5775 5775 5775 5775 5775 5774 5774 5773 5773 5773 5773 5773 5773 5773 5772 5772 5772 5771
5756 5757 5758 5758 5759 5760 5760 5761 5762 5762 5763 5764 5764 5765 5765 5766 5766 5767 5767 5768 5768 5768 5769 5769 5769 5769 5769 5770 5770 5770 5770 5770 5770 5771 5771 5771 5771 5771 5771 5771 5771 5771 5771 5771 5771 5771 5771 5771 5771 5771 5771 5772 5772 5772 5772 5771 5771 5771 5770 5770 5770 5770 5770 5770 5769 5769 5768 5768 5767
5754 5755 5755 5756 5756 5757 5757 5758 5759 5759 5760 5760 5761 5762 5762 5762 5763 5764 5764 5765 5765 5765 5765 5765 5765 5766 5766 5766 5766 5767 5767 5767 5767 5768 5768 5768 5768 5768 5768 5768 5768 5768 5768 5768 5768 5768 5768 5768 5768 5768 5768 5769 5769 5769 5768 5768 5768 5768 5767 5767 5767 5767 5766 5766 5766 5765 5765 5764 5764
5751 5752 5752 5753 5753 5754 5754 5755 5755 5756 5756 5757 5758 5758 5759 5759 5760 5760 5761 5761 5762 5762 5762 5762 5762 5762 5763 5763 5763 5763 5764 5764 5764 5765 5765 5765 5765 5765 5765 5765 5765 5765 5765 5765 5765 5765 5765 5765 5765 5765 5765 5765 5765 5765 5765 5765 5765 5765 5764 5764 5764 5764 5763 5763 5762 5762 5761 5761 5760
5748 5749 5750 5750 5750 5751 5751 5752 5752 5753 5753 5754 5755 5755 5755 5756 5756 5757 5758 5758 5758 5759 5759 5759 5759 5759 5759 5760 5760 5760 5760 5760 5761 5761 5761 5761 5762 5762 5762 5762 5762 5762 5762 5762 5762 5762 5762 5762 5762 5762 5762 5762 5762 5762 5762 5762 5761 5761 5761 5761 5761 5761 5760 5760 5759 5759 5758 5758 5757
5745 5746 5746 5747 5747 5748 5748 5749 5749 5750 5750 5751 5751 5752 5752 5753 5754 5754 5754 5755 5755 5755 5755 5755 5756 5756 5756 5756 5756 5756 5757 5757 5757 5758 5758 5758 5758 5758 5758 5758 5758 5759 5759 5759 5759 5759 5759 5759 5759 5759 5759 5759 5759 5759 5759 5759 5758 5758 5758 5758 5758 5758 5757 5756 5756 5755 5755 5755 5754
5743 5743 5744 5744 5744 5745 5745 5745 5746 5746 5747 5748 5748 5749 5749 5750 5750 5751 5751 5751 5752 5752 5752 5752 5752 5752 5752 5753 5753 5753 5753 5754 5754 5754 5754 5754 5755 5755 5755 5755 5755 5755 5755 5755 5755 5755 5755 5755 5755 5756 5756 5756 5756 5756 5755 5755 5755 5755 5755 5755 5755 5754 5754 5753 5753 5752 5752 5752 5751
5740 5740 5740 5741 5741 5742 5742 5742 5743 5743 5744 5744 5745 5745 5746 5746 5747 5747 5748 5748 5748 5748 5749 5749 5749 5749 5749 5749 5750 5750 5750 5750 5750 5750 5750 5750 5751 5751 5751 5751 5751 5751 5751 5751 5752 5752 5752 5752 5752 5752 5752 5753 5753 5752 5752 5752 5752 5751 5751 5751 5751 5751 5750 5750 5750 5749 5749 5749 5748
5736 5737 5737 5738 5738 5739 5739 5739 5740 5740 5740 5741 5741 5742 5742 5743 5743 5744 5744 5744 5745 5745 5745 5745 5745 5745 5745 5745 5746 5746 5746 5747 5747 5747 5747 5747 5747 5747 5747 5747 5747 5748 5748 5748 5748 5748 5748 5748 5749 5749 5749 5749 5749 5749 5749 5748 5748 5748 5748 5748 5748 5748 5747 5746 5746 5746 5745 5745 5745
5734 5734 5735 5735 5735 5735 5736 5736 5737 5737 5737 5738 5738 5738 5739 5739 5740 5740 5740 5740 5740 5740 5740 5741 5741 5741 5741 5741 5742 5742 5743 5743 5743 5743 5744 5744 5744 5744 5744 5744 5744 5744 5744 5744 5744 5744 5744 5745 5745 5745 5745 5745 5745 5745 5745 5745 5745 5744 5744 5744 5744 5744 5744 5743 5743 5743 5742 5742 5741
5731 5731 5732 5732 5732 5733 5733 5733 5734 5734 5734 5735 5735 5735 5735 5736 5736 5736 5736 5736 5737 5736 5737 5737 5738 5738 5737 5738 5738 5739 5739 5739 5740 5740 5740 5740 5740 5740 5740 5740 5740 5740 5740 5740 5740 5740 5740 5741 5741 5741 5741 5741 5741 5741 5741 5741 5741 5741 5740 5740 5740 5740 5740 5740 5739 5739 5738 5738 5738
5728 5728 5729 5729 5729 5730 5730 5730 5730 5731 5731 5731 5731 5732 5732 5732 5732 5733 5733 5733 5732 5733 5733 5733 5734 5734 5734 5734 5734 5735 5735 5735 5736 5736 5736 5737 5737 5737 5737 5737 5737 5737 5736 5736 5736 5736 5737 5737 5737 5737 5737 5737 5737 5737 5737 5737 5737 5737 5737 5737 5737 5737 5736 5736 5735 5735 5735 5734 5734
5725 5725 5726 5726 5726 5726 5727 5727 5727 5727 5728 5728 5728 5728 5729 5729 5729 5729 5729 5729 5729 5729 5729 5730 5730 5730 5730 5730 5730 5731 5731 5732 5732 5732 5733 5733 5733 5733 5734 5734 5733 5733 5733 5733 5733 5733 5733 5733 5733 5734 5734 5734 5733 5733 5733 5733 5733 5733 5733 5733 5733 5732 5732 5732 5731 5731 5731 5730 5730
5722 5722 5723 5723 5723 5723 5724 5724 5724 5724 5725 5725 5725 5725 5725 5725 5725 5725 5725 5725 5725 5725 5725 5726 5726 5726 5726 5726 5727 5727 5727 5728 5728 5729 5729 5729 5729 5730 5730 5730 5730 5730 5730 5730 5730 5730 5730 5730 5730 5730 5730 5730 5729 5729 5729 5729 5729 5729 5729 5729 5729 5728 5728 5728 5728 5727 5727 5727 5727
5719 5719 5720 5720 5720 5720 5720 5720 5721 5721 5721 5721 5721 5721 5722 5721 5721 5722 5722 5721 5721 5722 5722 5722 5722 5722 5723 5723 5723 5723 5724 5724 5724 5725 5725 5725 5725 5726 5726 5726 5726 5726 5726 5726 5726 5726 5726 5726 5726 5726 5726 5725 5725 5725 5725 5725 5725 5725 5725 5725 5725 5724 5724 5724 5724 5724 5724 5724 5725
5716 5716 5716 5717 5717 5717 5717 5717 5718 5718 5718 5718 5718 5718 5718 5718 5718 5718 5718 5718 5718 5718 5718 5718 5719 5719 5719 5719 5719 5720 5720 5720 5720 5720 5721 5721 5721 5722 5722 5722 5722 5723 5723 5723 5723 5723 5723 5722 5722 5722 5722 5722 5722 5722 5721 5721 5721 5721 5721 5721 5721 5721 5721 5721 5721 5721 5721 5721 5721
5712 5713 5713 5713 5713 5714 5714 5714 5714 5714 5714 5714 5714 5714 5714 5714 5714 5714 5714 5714 5714 5715 5715 5715 5715 5715 5715 5715 5715 5715 5716 5716 5716 5717 5717 5717 5717 5718 5718 5718 5718 5719 5719 5719 5719 5719 5719 5719 5719 5718 5718 5718 5718 5718 5718 5718 5718 5718 5718 5718 5718 5718 5718 5718 5718 5718 5718 5718 5717
5709 5710 5710 5710 5710 5710 5710 5710 5710 5710 5710 5710 5710 5710 5710 5710 5710 5710 5710 5710 5710 5710 5711 5711 5711 5711 5711 5711 5711 5712 5712 5712 5712 5713 5713 5713 5714 5714 5714 5714 5715 5715 5715 5715 5715 5715 5715 5715 5715 5715 5715 5715 5715 5715 5715 5715 5715 5715 5715 5715 5715 5715 5715 5715 5715 5715 5715 5714 5714
5706 5706 5706 5706 5706 5706 5706 5706 5706 5706 5707 5707 5706 5706 5706 5706 5706 5706 5706 5706 5707 5707 5707 5707 5707 5707 5707 5708 5708 5708 5708 5708 5709 5709 5709 5709 5710 5710 5710 5710 5711 5711 5711 5711 5711 5711 5711 5711 5711 5711 5711 5711 5711 5711 5711 5711 5711 5711 5711 5711 5711 5711 5711 5711 5711 5711 5710 5710 5710
5702 5702 5702 5702 5702 5702 5702 5702 5702 5703 5703 5703 5703 5702 5702 5702 5702 5703 5703 5703 5703 5703 5703 5703 5703 5704 5704 5704 5704 5704 5705 5705 5705 5705 5705 5706 5706 5706 5706 5707 5707 5707 5707 5708 5708 5708 5708 5708 5708 5708 5708 5708 5708 5708 5708 5708 5708 5708 5708 5708 5708 5708 5708 5708 5707 5707 5707 5707 5707
5699 5699 5699 5699 5699 5698 5698 5699 5699 5699 5699 5699 5699 5699 5699 5699 5699 5699 5699 5699 5700 5700 5700 5700 5700 5700 5700 5700 5700 5701 5701 5701 5701 5701 5702 5702 5702 5703 5703 5703 5703 5704 5704 5704 5704 5704 5704 5705 5705 5705 5705 5705 5705 5705 5705 5705 5705 5705 5705 5705 5705 5705 5704 5704 5704 5704 5704 5704 5704
5695 5695 5695 5695 5695 5695 5695 5695 5695 5695 5695 5695 5695 5695 5695 5695 5695 5696 5696 5696 5696 5696 5696 5696 5696 5697 5697 5697 5697 5697 5697 5698 5698 5698 5698 5699 5699 5699 5700 5700 5700 5700 5700 5700 5700 5701 5701 5701 5701 5701 5702 5702 5702 5702 5702 5701 5701 5701 5701 5701 5701 5701 5701 5701 5701 5701 5701 5700 5700
5691 5690 5690 5691 5691 5691 5691 5691 5691 5691 5691 5691 5692 5692 5692 5692 5692 5693 5693 5693 5693 5693 5693 5693 5693 5693 5693 5694 5694 5694 5694 5694 5695 5695 5695 5695 5695 5696 5696 5696 5696 5696 5696 5697 5697 5697 5697 5698 5698 5698 5698 5699 5699 5698 5698 5698 5698 5698 5699 5699 5699 5698 5698 5698 5698 5698 5698 5698 5697
5687 5687 5687 5687 5687 5687 5687 5688 5688 5688 5688 5688 5688 5689 5689 5689 5690 5690 5690 5690 5690 5690 5690 5690 5690 5690 5690 5690 5690 5690 5691 5691 5691 5691 5692 5692 5692 5692 5693 5693 5693 5693 5693 5693 5694 5694 5694 5694 5695 5695 5695 5695 5695 5695 5695 5695 5695 5695 5695 5695 5695 5695 5695 5695 5695 5695 5695 5695 5694
5683 5683 5683 5683 5684 5684 5684 5684 5684 5685 5685 5685 5685 5686 5686 5686 5687 5687 5687 5687 5687 5687 5687 5687 5687 5687 5687 5687 5688 5688 5688 5688 5688 5689 5689 5689 5689 5689 5690 5690 5690 5690 5690 5690 5690 5690 5691 5691 5691 5691 5692 5692 5692 5692 5692 5692 5692 5692 5692 5692 5692 5692 5692 5692 5692 5692 5691 5691 5691
5680 5680 5680 5680 5680 5680 5681 5681 5681 5681 5681 5682 5682 5683 5683 5683 5684 5684 5684 5684 5684 5684 5684 5684 5684 5684 5685 5685 5685 5685 5685 5685 5685 5685 5685 5686 5686 5686 5686 5686 5686 5686 5686 5687 5687 5687 5688 5688 5688 5688 5688 5689 5689 5689 5689 5689 5689 5689 5689 5689 5689 5689 5689 5689 5689 5689 5689 5689 5688
5676 5676 5676 5676 5677 5677 5677 5678 5678 5678 5678 5679 5679 5680 5680 5680 5680 5681 5681 5681 5681 5681 5681 5681 5681 5682 5682 5682 5682 5682 5682 5682 5682 5682 5682 5683 5683 5683 5683 5683 5683 5683 5683 5684 5684 5684 5684 5685 5685 5685 5685 5685 5685 5685 5686 5686 5686 5686 5686 5686 5686 5686 5686 5686 5686 5686 5686 5686 5686
5672 5673 5673 5673 5673 5674 5674 5675 5675 5675 5675 5676 5676 5677 5677 5677 5678 5678 5678 5678 5678 5678 5678 5678 5679 5679 5679 5679 5679 5679 5679 5679 5679 5679 5680 5680 5680 5680 5680 5680 5680 5680 5680 5680 5680 5681 5681 5681 5681 5682 5682 5682 5682 5682 5682 5682 5682 5683 5683 5683 5683 5683 5683 5683 5683 5683 5683 5683 5683
5669 5669 5670 5670 5670 5670 5671 5671 5672 5672 5672 5673 5673 5674 5674 5674 5675 5675 5675 5675 5675 5675 5675 5676 5676 5676 5676 5676 5676 5676 5676 5676 5676 5676 5676 5676 5676 5677 5677 5677 5677 5677 5677 5677 5677 5678 5678 5678 5678 5678 5679 5679 5679 5679 5679 5679 5679 5680 5680 5680 5680 5680 5680 5680 5680 5681 5681 5681 5681
5666 5666 5666 5667 5667 5667 5668 5668 5669 5669 5669 5670 5670 5670 5671 5671 5672 5672 5672 5672 5672 5672 5673 5673 5673 5673 5673 5673 5673 5673 5673 5673 5673 5673 5674 5674 5674 5674 5674 5674 5674 5674 5674 5674 5674 5674 5675 5675 5675 5675 5675 5675 5676 5676 5676 5676 5676 5677 5677 5677 5677 5677 5678 5678 5678 5678 5678 5678 5678
5663 5663 5663 5664 5664 5664 5665 5665 5665 5666 5666 5667 5667 5667 5668 5668 5669 5669 5669 5669 5670 5670 5670 5670 5670 5670 5670 5670 5670 5670 5670 5670 5670 5670 5670 5671 5670 5670 5670 5670 5670 5670 5671 5671 5671 5671 5672 5672 5672 5672 5672 5673 5673 5673 5673 5673 5674 5674 5674 5675 5675 5675 5675 5675 5675 5676 5676 5676 5676
5660 5660 5660 5660 5661 5661 5661 5662 5662 5663 5663 5664 5664 5665 5665 5665 5665 5666 5666 5666 5667 5667 5667 5667 5667 5667 5667 5668 5668 5668 5668 5668 5668 5668 5668 5668 5668 5668 5667 5667 5667 5668 5668 5668 5668 5669 5669 5669 5669 5670 5670 5670 5670 5670 5670 5671 5671 5671 5672 5672 5672 5672 5673 5673 5673 5673 5673 5673 5673
5656 5657 5657 5657 5658 5658 5658 5659 5659 5660 5660 5660 5661 5661 5662 5662 5663 5663 5663 5664 5664 5664 5664 5664 5665 5665 5665 5665 5665 5665 5665 5665 5665 5665 5665 5665 5665 5665 5665 5665 5665 5665 5665 5665 5665 5666 5666 5666 5666 5667 5667 5667 5667 5668 5668 5668 5669 5669 5669 5670 5670 5670 5670 5670 5670 5670 5670 5670 5670
5654 5654 5654 5654 5654 5655 5655 5655 5656 5656 5657 5657 5658 5658 5659 5659 5660 5660 5660 5660 5661 5661 5661 5661 5661 5661 5661 5662 5662 5662 5662 5662 5662 5662 5662 5662 5662 5662 5662 5662 5662 5662 5663 5663 5663 5663 5664 5664 5664 5664 5665 5665 5665 5665 5665 5666 5666 5667 5667 5667 5667 5667 5667 5668 5668 5668 5668 5668 5667
5651 5651 5651 5651 5651 5651 5652 5652 5653 5653 5654 5654 5655 5655 5655 5656 5656 5657 5657 5657 5658 5658 5658 5658 5659 5659 5659 5659 5659 5659 5659 5659 5659 5659 5659 5660 5660 5660 5660 5660 5660 5660 5660 5660 5660 5661 5661 5661 5661 5662 5662 5662 5663 5663 5663 5664 5664 5664 5665 5665 5665 5665 5665 5665 5665 5665 5665 5665 5665
5648 5648 5648 5648 5649 5649 5649 5649 5650 5650 5651 5651 5652 5652 5652 5653 5653 5654 5654 5654 5655 5655 5655 5655 5656 5656 5656 5656 5656 5656 5656 5656 5657 5657 5657 5657 5657 5657 5657 5657 5657 5658 5658 5658 5658 5658 5659 5659 5659 5659 5660 5660 5660 5660 5661 5661 5661 5662 5662 5662 5662 5662 5662 5662 5662 5662 5662 5662 5662
5645 5645 5645 5646 5646 5646 5646 5647 5647 5647 5648 5648 5649 5649 5650 5650 5650 5650 5651 5651 5652 5652 5652 5653 5653 5653 5653 5653 5653 5654 5654 5654 5654 5654 5654 5654 5655 5655 5655 5655 5655 5655 5655 5655 5655 5656 5656 5656 5657 5657 5657 5658 5658 5658 5659 5659 5659 5659 5660 5660 5660 5660 5660 5660 5660 5660 5660 5660 5660
5643 5643 5643 5643 5644 5644 5644 5644 5645 5645 5645 5645 5646 5646 5646 5647 5647 5647 5648 5648 5649 5649 5649 5650 5650 5650 5650 5650 5650 5651 5651 5651 5651 5651 5651 5652 5652 5652 5652 5652 5652 5653 5653 5653 5653 5653 5654 5654 5654 5655 5655 5655 5655 5656 5656 5656 5657 5657 5657 5657 5657 5657 5657 5657 5658 5658 5658 5658 5658
5641 5641 5641 5641 5641 5641 5642 5642 5642 5642 5643 5643 5643 5643 5644 5644 5644 5645 5645 5645 5645 5646 5646 5647 5647 5647 5647 5648 5648 5648 5648 5648 5648 5649 5649 5649 5649 5649 5650 5650 5650 5650 5650 5650 5650 5651 5651 5651 5652 5652 5652 5653 5653 5653 5654 5654 5654 5655 5655 5655 5655 5655 5655 5655 5655 5655 5655 5655 5655
5639 5639 5639 5639 5639 5640 5640 5640 5640 5640 5640 5640 5641 5641 5641 5641 5641 5642 5642 5642 5643 5643 5643 5644 5644 5644 5645 5645 5645 5645 5645 5645 5646 5646 5646 5646 5646 5646 5647 5647 5647 5647 5647 5648 5648 5648 5649 5649 5649 5650 5650 5650 5650 5651 5651 5651 5652 5652 5652 5652 5653 5653 5653 5653 5653 5653 5653 5653 5653